Temp
8 8 8 8 8 8 8 8 8 8 8 8 8 8 8 11 12 13 12 11 11 11 13 16 18 19 19 21 22 23 22 23 24 25 26 28 26 27 26 26 25 26 25 23 22
9 9 9 8 8 8 8 8 9 8 8 8 8 8 9 11 13 13 11 11 12 13 14 15 17 18 20 21 22 22 22 23 26 26 26 27 26 27 24 25 26 25 23 22 19
9 9 9 9 9 8 8 8 8 8 8 9 10 10 10 11 14 13 12 12 12 12 14 15 16 18 19 21 22 22 21 24 25 26 26 26 26 27 25 25 26 27 26 22 19
9 9 9 9 9 9 9 9 8 8 8 8 8 10 11 11 15 13 12 12 12 13 14 16 17 17 18 20 22 21 22 22 23 25 24 24 26 26 25 26 25 26 27 22 20
9 9 9 9 9 9 9 9 9 9 8 8 8 10 11 15 13 12 11 12 13 13 14 15 16 16 17 19 21 21 21 21 22 23 23 24 24 25 25 26 26 25 25 22 20
9 9 9 9 9 9 9 9 9 9 9 9 9 10 12 13 12 11 11 11 12 13 14 15 15 15 15 16 17 20 20 20 19 21 22 22 23 24 24 26 26 25 24 23 21
9 9 9 9 9 9 9 9 9 9 9 9 9 9 14 13 12 11 12 11 12 12 13 14 14 14 15 15 17 17 16 18 19 19 20 22 21 21 24 26 25 25 23 23 22
8 8 9 9 9 9 9 9 9 10 10 9 9 10 14 12 12 12 12 12 12 12 12 12 13 14 14 15 15 15 17 16 20 20 21 20 19 23 25 25 25 25 25 23 23
8 8 8 9 9 9 9 9 10 10 10 9 10 11 14 13 12 12 12 12 12 13 13 13 13 14 14 14 14 16 15 17 19 21 21 21 20 23 24 24 25 25 26 25 23
8 8 9 9 9 9 10 10 10 10 10 9 10 12 14 12 12 11 12 12 12 13 14 14 14 14 15 14 13 16 16 17 18 19 20 20 21 23 24 24 24 26 26 26 24
8 8 9 9 9 10 9 10 13 13 12 10 11 11 13 11 11 12 12 12 14 14 13 14 12 14 15 15 15 14 14 14 16 17 16 16 16 18 20 20 20 24 25 26 25
8 8 8 9 9 10 9 10 8 7 12 10 10 10 11 10 12 14 12 13 13 13 13 14 13 15 14 14 13 14 13 14 15 16 16 16 17 18 19 20 20 20 24 25 26
8 8 8 8 9 8 7 6 6 6 11 11 11 11 11 10 11 12 12 13 13 12 13 11 13 14 13 13 13 14 14 14 14 15 16 15 15 17 18 19 20 20 20 22 22
8 8 8 9 9 8 8 6 6 6 11 11 12 11 11 11 11 12 12 11 12 11 12 12 13 12 13 12 13 11 14 14 14 13 12 16 13 17 19 20 20 21 20 21 22
8 8 8 9 8 9 6 6 6 7 13 11 11 10 12 11 11 12 12 12 11 12 11 13 13 12 12 13 13 12 14 13 13 13 13 14 12 15 19 18 20 22 21 21 22
8 8 8 8 8 6 7 6 7 10 13 8 10 10 11 11 11 11 12 13 12 11 11 11 14 13 12 13 13 14 13 12 13 13 11 13 13 14 17 19 21 22 23 23 22
8 8 8 8 8 7 7 8 9 12 8 8 8 9 9 10 10 10 11 11 10 9 11 12 14 14 12 12 14 12 11 11 12 11 12 16 15 15 19 20 21 22 23 24 24
8 8 7 7 7 7 7 8 12 5 7 7 8 8 9 9 11 10 11 11 10 9 9 10 11 13 14 13 12 12 10 10 11 13 14 15 13 17 20 20 19 20 21 21 24
7 7 6 6 7 7 10 10 10 8 6 6 8 7 7 8 8 9 10 9 11 10 7 9 11 13 13 13 12 10 9 11 10 11 11 14 16 19 20 18 17 17 17 18 21
7 8 6 6 7 8 6 9 7 7 7 7 7 5 6 6 7 7 8 10 10 10 10 9 8 12 13 13 13 9 10 11 10 12 13 16 16 18 15 12 14 14 15 16 19
8 9 6 7 7 7 7 7 5 7 8 7 6 6 6 5 6 5 6 9 10 10 10 9 7 11 12 11 9 9 9 9 10 12 12 13 17 12 10 10 10 11 12 13 16
8 6 5 7 6 3 7 4 6 8 7 7 7 7 6 6 6 7 8 9 10 9 7 9 6 8 10 13 13 11 9 9 10 12 12 12 14 12 10 8 8 8 8 8 11
7 6 5 6 7 6 3 5 7 7 7 7 6 7 7 6 5 6 7 9 9 8 7 7 8 8 12 12 12 11 11 10 9 9 11 12 13 12 9 8 7 6 7 6 5
8 5 4 6 5 6 5 6 6 7 8 8 7 8 6 5 6 5 7 8 8 8 6 6 7 7 8 10 10 9 10 10 9 10 11 11 11 10 8 6 6 5 5 5 5
7 5 2 5 5 7 7 7 6 6 7 7 7 7 6 5 6 5 6 7 8 7 7 8 6 7 8 9 9 8 9 9 9 9 10 10 10 9 6 5 4 4 4 4 4
5 5 3 3 6 8 5 6 7 6 7 7 6 8 8 5 7 6 6 6 6 7 5 7 6 7 6 9 9 9 9 10 9 8 8 8 10 8 8 5 4 4 3 3 3
3 3 8 5 6 7 8 7 7 8 7 8 7 7 7 7 7 7 7 6 6 4 4 5 6 6 8 10 9 9 9 8 8 7 6 7 7 6 7 5 4 5 3 3 3
Height
851 849 848 846 844 842 840 838 836 833 831 828 825 823 820 815 813 812 812 817 813 807 803 799 795 794 793 787 784 781 785 781 774 773 766 752 764 756 756 758 760 761 763 767 771
851 849 848 847 845 843 841 838 836 834 831 827 824 821 818 815 815 814 818 815 811 808 804 801 796 794 788 784 779 781 780 770 758 756 759 753 757 754 764 760 758 762 765 769 776
851 850 849 848 846 844 842 839 836 834 831 828 824 820 817 814 814 818 817 814 810 808 806 803 800 796 788 780 777 776 777 762 757 752 752 755 753 753 759 761 754 754 757 767 774
852 850 849 848 846 844 842 839 837 834 832 829 825 820 815 815 814 819 817 814 811 809 806 802 799 795 789 781 773 777 768 769 763 756 758 759 754 753 756 753 751 750 749 763 770
851 850 850 848 846 844 842 839 837 835 832 829 826 822 818 816 822 821 818 815 813 810 807 803 799 797 794 781 776 771 770 767 764 761 759 757 757 752 751 747 749 752 753 758 766
851 850 849 848 846 844 842 840 837 835 832 830 828 824 822 820 823 822 819 816 814 812 808 806 804 804 801 796 791 774 773 771 772 765 762 762 755 753 749 747 747 749 753 755 759
851 850 849 847 845 843 841 839 837 834 832 830 828 828 823 827 824 822 819 817 815 814 811 809 809 806 800 795 788 784 786 776 768 769 765 761 754 750 746 742 741 745 750 749 753
850 849 848 846 844 842 840 838 836 833 831 830 829 829 825 826 824 822 819 815 814 813 812 811 809 807 803 796 791 789 781 776 763 762 759 767 736 741 738 739 737 736 739 743 746
849 848 847 846 844 842 840 837 835 833 831 830 830 830 826 827 825 823 821 817 814 812 810 809 809 804 800 799 791 781 778 769 761 750 752 750 738 740 732 730 729 729 729 733 741
848 847 847 846 844 842 838 836 835 834 833 830 831 832 828 831 828 824 821 818 815 811 805 805 802 799 793 793 793 778 772 764 764 758 749 747 734 732 727 725 724 718 721 721 731
847 847 846 846 845 841 839 838 837 836 835 838 839 835 831 833 828 825 822 818 813 808 807 803 805 794 789 789 788 787 786 781 772 764 767 760 754 746 736 732 732 718 716 716 719
846 847 847 847 845 843 841 842 848 850 837 842 840 837 836 836 829 823 823 817 813 808 807 801 796 790 795 794 790 787 784 779 771 768 767 759 741 741 735 728 727 727 712 710 710
845 846 847 848 847 847 844 849 849 848 841 839 840 838 836 837 831 825 825 819 814 811 807 809 799 796 795 791 789 783 780 775 773 770 762 761 738 734 727 725 718 717 719 713 711
846 846 848 848 850 849 849 849 849 850 837 839 836 838 837 835 831 826 826 826 815 815 811 805 798 798 794 790 786 790 776 773 771 772 771 756 737 719 711 706 706 708 712 711 709
846 847 848 847 850 850 852 849 850 850 824 840 839 841 837 836 833 825 826 822 817 813 816 799 796 795 793 789 785 781 776 777 772 769 764 759 767 718 701 704 696 692 697 701 701
847 848 849 850 850 852 850 850 852 844 823 851 844 843 837 834 830 828 825 822 818 815 809 804 792 794 792 787 785 779 778 774 766 764 765 756 756 712 706 698 688 682 680 682 688
848 849 850 849 851 851 851 852 846 827 855 853 853 847 845 835 831 829 826 820 827 824 808 798 782 784 792 787 773 780 782 773 762 766 745 726 730 704 690 684 679 676 672 670 672
848 850 850 850 850 851 852 853 834 869 859 859 856 852 846 845 831 830 825 821 826 830 824 809 798 784 783 785 784 779 789 782 760 742 730 726 723 693 673 672 676 673 672 668 661
848 850 851 850 850 851 851 847 843 854 863 863 855 855 851 851 848 837 828 831 826 831 840 822 799 786 785 778 785 788 787 775 771 754 753 716 699 679 671 679 682 684 681 674 664
849 851 852 850 851 852 860 849 859 858 859 860 859 870 859 856 853 849 839 830 829 832 831 827 816 786 779 777 776 787 783 773 769 743 728 698 696 681 688 700 691 688 685 678 668
849 849 851 850 851 854 860 857 865 858 858 861 866 864 862 863 860 860 850 835 833 833 831 828 828 794 784 779 789 786 781 783 772 755 737 714 688 710 711 713 704 695 689 683 669
848 853 851 851 857 867 855 866 860 855 858 859 861 860 861 861 857 853 842 836 833 835 837 830 833 811 787 770 770 777 782 780 764 742 737 734 701 710 714 714 710 702 696 692 677
845 849 851 851 851 856 868 863 855 856 859 857 860 859 858 861 862 851 845 836 836 838 837 835 822 809 770 771 773 774 770 772 772 765 739 727 703 710 719 713 710 706 700 698 693
842 849 855 853 856 851 860 858 858 854 854 854 853 852 859 861 857 855 842 838 838 838 843 843 828 819 808 787 783 785 769 769 767 749 737 728 723 718 724 719 712 710 707 704 699
839 842 847 849 852 847 848 851 854 855 854 853 850 850 854 858 853 851 847 841 836 838 836 834 830 815 804 793 789 787 776 771 764 763 745 734 730 728 730 724 720 716 712 709 705
834 840 848 852 844 842 852 852 849 854 851 849 850 843 846 856 844 845 844 848 842 837 842 834 826 815 804 781 782 780 774 767 765 769 756 747 727 729 727 728 721 720 717 715 712
828 831 828 847 844 843 839 842 843 845 843 841 844 844 843 841 841 840 840 842 843 847 849 842 829 821 792 771 773 772 774 772 769 776 774 761 755 743 728 730 727 720 723 721 722
Wind_Speed
6 8 9 9 10 11 13 13 14 15 15 16 18 19 20 14 12 11 15 15 17 20 17 15 10 9 12 8 10 8 10 16 21 18 16 10 10 9 2 8 3 6 4 5 21
5 7 8 8 9 11 12 14 15 16 18 19 19 20 22 9 3 17 14 18 16 15 15 14 9 10 8 7 8 11 13 23 19 17 18 16 13 12 6 11 14 10 5 4 20
6 7 8 9 11 12 13 15 16 17 18 20 21 22 21 6 2 8 17 19 16 14 11 9 10 10 12 13 15 12 20 18 17 17 14 18 14 13 11 14 12 16 13 13 20
6 8 9 10 11 12 13 15 16 17 18 19 21 22 13 2 2 10 16 17 15 13 10 10 7 6 8 12 16 21 18 16 20 20 14 20 17 18 14 15 5 5 8 17 19
8 9 9 10 10 12 13 15 17 17 17 19 20 21 8 5 5 7 14 16 14 13 10 9 7 6 9 9 14 20 17 19 18 20 20 19 22 19 19 13 11 7 8 18 18
9 9 9 10 10 11 13 15 18 18 18 18 17 17 5 9 8 10 15 12 12 12 10 9 5 7 9 10 13 13 15 16 14 18 21 22 24 23 24 20 18 11 12 16 20
9 10 9 10 11 12 13 15 18 18 17 13 12 10 4 7 8 12 13 12 10 9 9 7 7 7 8 8 9 15 19 20 20 16 21 18 26 29 22 22 21 14 14 16 19
10 9 8 9 9 11 13 16 18 15 10 8 8 4 3 8 12 14 13 10 9 9 5 7 7 9 11 11 14 17 18 18 15 24 21 16 34 22 22 25 24 23 16 15 19
7 7 7 7 9 10 13 16 9 6 7 5 4 5 4 7 18 14 12 12 13 5 9 6 6 6 7 10 12 11 13 17 17 19 17 26 33 21 19 18 26 24 21 17 16
7 6 5 6 8 11 13 7 4 4 5 2 2 3 3 10 16 13 14 11 6 10 3 3 3 6 8 7 8 11 13 16 17 16 19 20 27 24 24 21 24 23 21 21 18
6 5 4 4 7 11 9 3 3 3 8 5 5 4 6 15 6 7 12 12 5 7 6 5 6 9 13 12 15 16 18 22 19 19 20 21 23 19 20 18 16 22 23 23 19
6 5 3 3 5 9 7 4 3 2 1 1 5 5 6 7 7 8 12 8 9 10 8 9 12 6 10 13 14 15 18 20 19 18 21 24 28 25 24 26 19 18 23 22 18
6 5 3 2 3 7 10 5 2 3 3 1 2 4 6 10 6 8 9 10 10 9 10 10 15 17 11 14 15 15 16 18 21 18 22 22 32 29 27 28 25 22 22 21 19
7 6 4 1 1 1 4 3 3 1 1 5 2 2 6 7 3 8 4 5 4 7 11 8 5 11 14 17 14 16 15 15 17 15 12 11 12 16 16 26 29 25 23 23 21
8 6 3 1 2 1 1 3 1 2 2 6 3 4 12 4 10 3 9 5 8 11 4 7 13 14 17 16 13 13 12 14 16 16 17 19 13 7 18 26 24 26 24 25 24
9 6 5 2 4 1 2 1 2 0 0 4 5 8 10 1 5 7 4 3 9 8 7 16 18 12 9 12 13 13 14 16 16 13 14 16 16 17 17 21 17 17 25 21 24
10 8 3 2 2 1 2 2 1 2 1 5 4 8 11 7 6 7 11 9 7 8 11 17 8 3 5 10 9 9 10 5 4 6 10 12 14 24 13 20 23 24 22 23 22
11 7 4 5 3 2 1 2 1 1 2 3 4 9 4 9 5 12 8 6 6 5 11 9 9 1 2 10 10 17 5 4 8 8 12 18 8 13 11 9 12 13 19 16 21
12 7 3 4 3 3 1 1 1 2 2 4 5 3 1 4 6 8 6 3 5 7 6 6 7 22 22 12 2 0 5 2 7 18 12 8 15 22 19 7 9 13 15 18 17
8 5 2 2 3 1 3 2 1 1 2 0 2 1 3 5 7 9 5 1 4 1 10 6 13 12 9 10 11 7 5 5 3 5 8 8 14 12 10 15 18 17 16 16 20
6 3 1 2 4 3 1 2 3 4 2 1 1 2 4 4 5 4 5 6 2 8 13 14 6 13 17 3 10 4 2 4 5 5 5 7 6 6 15 17 20 20 20 17 20
5 1 1 5 2 1 1 3 2 4 5 5 3 5 2 3 5 4 4 3 3 10 11 9 5 10 21 22 9 4 6 8 5 6 7 9 10 9 13 17 14 17 12 9 2
4 2 2 1 3 2 0 3 3 5 5 4 4 5 2 3 4 7 6 2 6 10 4 7 3 8 7 2 4 10 17 12 11 6 14 6 4 9 15 15 12 11 5 4 5
4 3 1 1 1 4 4 3 2 6 5 5 3 4 3 5 7 6 5 5 8 8 5 5 4 8 11 18 16 15 20 18 9 4 8 7 13 15 15 15 12 8 5 5 8
0 2 2 4 4 5 5 5 4 5 6 6 4 9 6 4 5 6 5 8 9 3 4 6 9 13 16 19 20 20 16 12 10 10 5 12 13 11 10 13 8 6 4 4 9
5 4 2 2 4 9 4 6 8 3 6 5 8 2 9 7 8 9 10 9 7 3 9 5 5 12 17 14 9 16 8 11 8 12 10 17 10 14 13 11 9 7 6 6 7
4 1 2 7 6 6 5 5 8 7 8 5 6 6 10 14 12 14 13 12 12 10 3 5 5 7 6 12 17 2 11 8 3 9 11 8 12 19 13 12 14 10 7 7 8
Wind_Direction
29 31 23 18 11 6 3 2 1 359 359 355 350 347 347 355 32 46 40 350 334 337 341 323 300 275 282 258 240 247 240 239 240 240 254 243 236 207 317 256 209 193 291 24 149
33 27 21 14 10 3 360 354 353 351 351 352 349 349 350 4 47 51 0 352 349 352 344 342 331 313 261 236 227 221 231 242 243 246 253 255 226 238 215 220 226 218 189 153 151
31 21 12 5 2 358 355 353 347 345 345 348 347 349 349 2 243 18 358 358 353 350 337 322 305 286 256 241 238 240 247 256 255 261 246 264 240 243 233 242 228 234 201 166 166
2 358 352 348 349 349 349 348 345 342 340 341 343 346 355 359 15 343 357 360 2 349 340 338 320 285 259 238 230 251 253 265 265 271 253 257 258 255 246 255 354 256 261 174 179
333 331 327 329 333 335 339 339 340 338 336 338 341 348 7 70 28 328 346 355 357 359 0 349 340 331 274 286 280 261 257 269 265 260 263 257 256 259 250 250 257 229 273 188 190
314 320 317 321 324 325 328 332 332 332 332 334 338 356 336 61 327 328 335 339 347 356 352 352 347 326 283 281 276 296 297 281 285 272 263 258 259 255 253 257 261 247 234 210 206
304 305 308 313 319 323 325 326 325 325 323 329 340 350 10 26 336 332 335 326 325 335 327 348 321 299 338 280 296 285 285 276 257 255 260 271 260 250 253 254 250 241 227 224 214
296 300 303 311 317 322 324 322 324 326 336 339 352 347 51 337 340 345 347 349 339 320 304 310 303 285 268 286 286 279 271 266 251 244 242 233 261 252 239 243 243 245 226 227 216
295 287 297 310 320 324 323 322 327 346 350 352 360 330 52 335 351 338 345 336 329 330 314 287 278 273 278 263 278 241 262 266 275 239 250 230 256 254 258 257 241 242 242 221 222
283 294 293 313 324 328 329 332 348 2 329 328 288 243 72 346 332 318 340 333 318 321 268 312 271 280 263 266 271 303 286 275 268 265 272 262 268 256 245 247 253 242 242 236 214
273 276 286 312 334 342 353 324 248 174 35 29 346 323 333 336 324 331 342 326 311 276 332 333 294 292 306 298 292 289 285 281 278 289 304 288 284 280 284 288 288 257 236 244 216
238 250 263 301 341 358 24 53 42 1 322 357 309 296 311 343 306 357 345 343 332 328 331 294 281 346 323 298 289 288 281 278 278 261 267 282 273 260 257 263 259 267 259 247 232
215 206 229 285 353 24 67 60 17 17 277 120 330 316 333 333 324 325 334 327 325 328 332 297 289 312 301 291 292 291 279 278 277 279 274 278 276 269 254 260 258 247 256 264 273
194 188 204 298 37 7 53 19 21 353 263 357 359 56 324 319 252 306 311 316 299 322 326 289 304 299 303 290 294 291 297 300 278 276 270 272 282 276 262 245 239 239 242 248 251
185 182 194 151 100 14 26 31 15 248 281 1 344 327 322 326 326 134 327 277 296 318 297 293 313 314 300 295 303 283 296 289 281 276 279 256 268 289 238 245 247 231 228 237 236
177 172 140 84 68 83 52 30 250 187 324 341 319 342 348 270 321 307 326 248 278 296 250 271 276 270 267 307 289 280 284 283 272 261 255 256 240 277 250 258 261 254 241 228 225
175 167 173 134 97 18 28 250 360 17 30 345 335 338 334 323 321 350 338 23 28 338 341 321 293 206 256 293 308 244 283 287 245 219 255 251 229 243 274 265 261 253 249 239 225
173 163 120 92 73 52 312 15 301 100 288 348 316 326 332 350 327 332 330 354 70 22 308 333 318 275 69 292 299 298 248 264 294 291 311 306 249 245 246 277 302 292 278 282 226
163 153 103 34 54 39 349 310 343 181 100 331 310 301 327 345 332 330 329 313 11 29 1 306 274 318 300 311 242 322 242 233 276 257 263 240 266 282 267 260 317 306 298 279 266
159 156 105 34 64 357 72 270 197 170 160 49 316 342 318 330 335 352 316 332 341 354 351 300 294 285 286 294 267 223 350 275 227 286 304 278 250 258 358 320 307 303 296 284 271
160 194 269 106 74 59 173 209 217 204 175 210 297 275 258 313 306 311 280 285 318 330 328 303 247 293 311 245 303 286 261 239 259 267 289 316 321 355 330 323 302 300 298 292 271
173 196 328 141 64 70 199 195 224 179 193 244 268 249 274 294 279 268 263 252 297 329 313 318 296 285 284 282 258 247 279 286 283 285 280 273 277 359 334 323 302 303 310 306 184
154 109 21 82 176 168 165 249 229 201 208 214 225 227 214 273 292 227 269 309 339 335 318 337 270 305 305 163 194 309 310 298 287 273 266 290 325 0 332 320 319 314 314 9 40
153 145 18 65 257 133 177 205 226 217 239 224 243 227 248 265 235 280 291 320 334 314 339 297 263 266 277 287 304 301 305 312 293 266 319 287 312 322 328 318 328 338 351 80 81
218 180 206 168 221 172 198 168 174 217 224 218 246 221 200 268 266 239 256 302 315 106 311 314 271 278 279 281 286 279 291 317 331 346 291 321 312 318 342 334 328 332 358 56 90
153 155 198 107 164 163 185 211 206 200 198 220 228 208 221 233 233 293 306 312 281 278 336 300 278 314 294 278 263 294 303 335 3 355 335 319 307 333 353 346 2 11 25 53 74
144 124 186 156 160 177 203 196 210 189 217 245 235 270 253 259 272 277 276 268 261 287 290 274 304 324 273 311 312 213 359 324 302 22 350 343 307 314 343 3 3 16 37 63 73